Location: GMARS
(34.2910°N, 116.3838°W)
Time: 08:25:32
(UTC-07:00)

Daily predictions for brighter satellites

Satellite Brightness Start Highest point End
(mag) Time Altitude Azimuth Time Altitude Azimuth Time Altitude Azimuth
Cosmos 1452 Rocket 4.5 20:13:24 10° SSE 20:17:43 26° E 20:22:02 10° NE
COSMOS 2406 3.5 20:19:06 10° N 20:24:42 53° ENE 20:30:15 10° SE
Cosmos 1825 4.1 20:23:12 10° ESE 20:25:03 13° E 20:26:53 10° ENE
ALOS 2.3 20:22:36 10° SSE 20:27:16 90° E 20:31:57 10° NNW
Cosmos 2278 Rocket 3.0 20:24:31 10° SSE 20:29:18 29° ESE 20:34:07 10° NE
Centaur AC-119 3.2 20:28:39 10° SW 20:30:47 17° SSW 20:32:07 11° SSE
Cosmos 2184 Rocket 4.0 20:25:47 10° S 20:31:52 72° E 20:38:01 10° N
Cosmos 1844 Rocket 2.7 20:26:25 10° S 20:32:02 70° ESE 20:37:39 10° NNE
Cosmos 1844 3.9 20:28:33 10° S 20:34:05 52° ESE 20:39:42 10° NNE
H-2A R/B 3.4 20:32:35 11° ESE 20:35:42 22° ENE 20:38:58 10° NNE
FENGYUN 3A 3.9 20:35:20 10° S 20:40:42 73° WSW 20:46:06 10° NNW
CZ-3C R/B 3.9 19:54:33 10° WSW 20:43:44 36° S 20:50:58 14° SE
ISS -3.4 20:42:05 10° SW 20:45:19 89° NW 20:48:35 10° NE
Meteor 2-10 Rocket 3.8 20:39:57 10° N 20:45:46 89° W 20:51:22 10° S
USA 186 2.5 20:43:24 10° S 20:46:23 51° W 20:49:33 10° NNW
CZ-2D R/B 4.3 20:43:25 10° S 20:47:04 45° W 20:50:45 10° NNW
CENTAUR R/B 3.3 20:43:38 10° NW 20:51:38 75° WSW 20:59:55 10° SSE
Cosmos 2082 Rocket 4.4 20:51:04 10° NE 20:51:50 10° NE 20:52:37 10° ENE
Cosmos 1862 3.9 20:50:01 11° SSE 20:53:33 38° E 20:57:21 10° NNE
Meteor 1-10 Rocket 4.2 20:48:56 10° N 20:54:45 79° E 21:00:25 10° S
Cosmos 1238 Rocket 4.0 20:54:03 10° NNE 20:56:49 22° E 20:57:47 20° ESE
SPOT 5 3.9 20:55:02 17° ESE 20:58:17 33° ENE 21:03:02 10° N
COS B Rocket 3.8 20:57:37 10° NNE 21:01:16 35° E 21:02:44 25° SE
EO 1 Delta rocket 4.2 20:57:44 10° NNE 21:03:27 56° E 21:08:10 10° S
Okean 2 Rocket 4.0 21:02:43 22° SE 21:04:28 29° E 21:08:16 10° NNE
OAO 3 Rocket 3.6 21:00:31 10° SW 21:05:10 41° SSE 21:08:12 20° E
Cosmos 1674 Rocket 3.5 21:01:49 10° N 21:06:17 89° W 21:10:11 13° S
SL-27 R/B 2.7 21:03:39 10° NNW 21:07:17 71° WSW 21:09:43 19° S
Okean 3 4.4 21:03:51 10° NNE 21:07:38 31° ENE 21:09:00 25° ESE
Cosmos 1606 2.8 21:07:07 10° N 21:11:00 57° E 21:12:54 27° SSE
PSLV R/B 3.4 21:08:49 10° WNW 21:12:12 61° SSW 21:13:25 35° SE
Sich 1 Rocket 3.9 21:10:01 10° SSW 21:14:34 70° W 21:19:08 10° N
Cosmos 1782 Rocket 3.7 21:15:08 22° SSE 21:17:45 53° E 21:22:07 10° NNE
CZ-4 DEB 4.4 21:16:08 10° SSW 21:18:59 31° W 21:21:50 10° NW
GPS 2-05 Rocket1 3.0 21:18:26 10° W 21:22:08 79° N 21:23:47 30° ENE
Meteor 1-27 Rocket 3.6 21:16:50 10° N 21:22:23 80° E 21:26:03 22° SSE
Cosmos 1782 3.6 21:19:01 10° NNW 21:22:56 51° W 21:26:15 14° SSW
ERBS 4.1 21:20:09 10° WNW 21:23:02 25° WSW 21:24:35 18° SSW
Nadezhda 3 Rocket 4.0 21:17:07 10° N 21:23:29 74° E 21:27:59 21° SSE
COSMOS 2487 3.0 21:22:31 10° N 21:25:57 41° ENE 21:26:19 39° E
Envisat 3.0 21:26:18 22° S 21:29:37 84° WSW 21:34:43 10° NNW
MetOp-B 4.3 21:27:42 31° SE 21:30:02 55° ENE 21:35:15 10° N
Cosmos 1939 Rocket 3.3 21:29:40 24° S 21:31:50 57° W 21:35:41 10° NNW
APEX 3.2 21:32:03 43° SSE 21:33:05 61° ESE 21:37:38 10° NNE
SEDSat Delta rocket 3.6 21:31:01 10° SW 21:34:25 34° S 21:34:25 34° S
Cosmos 1975 Rocket 3.1 21:32:27 10° N 21:36:44 58° E 21:37:35 48° SE
Meteosat 1 Rocket2 4.5 21:31:18 10° WSW 21:37:06 53° S 21:41:03 30° ESE
Cosmos 1420 Rocket 3.9 21:35:46 10° SSW 21:41:01 88° ESE 21:46:17 10° NNE
Atlas Centaur 2 2.2 21:40:58 10° WSW 21:43:28 29° SW 21:43:28 29° SW
Cosmos 2341 Rocket 4.1 21:38:02 10° S 21:44:19 76° W 21:50:36 10° N
OAO 1 Rocket 4.3 21:40:40 10° WSW 21:45:58 76° SSE 21:48:06 37° E
ERS-1 Rocket 4.3 21:42:40 12° SSW 21:46:55 35° W 21:51:31 10° NNW
ARGOS 3.5 21:46:44 40° ESE 21:47:57 48° ENE 21:53:04 10° N
Cosmos 1378 Rocket 3.9 21:44:18 10° NNW 21:48:33 59° W 21:50:13 34° SSW
YAOGAN 6 2.5 21:53:07 75° N 21:53:07 75° N 21:56:23 10° N
ATLAS 5 CENTAUR R/B 4.0 21:48:48 10° NW 21:53:58 28° WSW 21:58:19 14° SSW
CZ-4 R/B 3.9 21:49:37 10° NNE 21:53:59 51° E 21:53:59 51° E
H-2A R/B 3.2 21:53:53 28° ENE 21:54:18 28° ENE 21:58:46 10° NNE
Cosmos 1408 4.2 21:52:45 16° SW 21:55:08 33° W 21:58:27 10° NNW
CZ-4 SHROUD 4.0 21:55:59 50° NW 21:55:59 50° NW 21:58:26 10° NNW
SL-8 Rocket 3.9 21:54:45 32° S 21:57:54 81° E 22:04:10 10° N
Cosmos 1140 Rocket 3.3 21:53:01 10° NNW 21:58:10 80° ENE 21:59:10 58° SE
USA 245 3.7 21:59:04 48° NNE 21:59:04 48° NNE 22:02:01 10° N
UNK 4.5 21:52:52 10° N 21:59:01 79° WNW 22:03:30 18° SSW
Cosmos 1242 Rocket 2.7 21:55:42 10° N 21:58:56 67° N 21:58:56 67° N
PSLV R/B 4.5 22:00:22 38° NW 22:00:22 38° NW 22:02:28 10° NNW
Cosmos 1825 4.0 21:57:33 13° SW 22:00:20 29° W 22:03:42 10° NNW
Timation 2 Rocket 3.8 21:57:01 10° NNW 22:02:59 70° ENE 22:04:20 53° SE
Meteor 1-25 Rocket 4.5 22:05:46 49° ESE 22:06:03 50° E 22:11:39 10° NNE
SPOT 1/Viking Rocket 3.4 22:08:41 62° SSE 22:09:35 90° SE 22:14:50 10° NNW
CZ-4B R/B 3.4 22:04:48 10° N 22:09:43 76° WNW 22:11:04 47° SSW
Cosmos 2151 Rocket 3.6 22:10:45 69° NE 22:10:45 69° NE 22:14:54 10° N
H-2A R/B 3.9 22:09:43 19° SW 22:11:33 25° W 22:15:06 10° NW
Cosmos 2278 Rocket 3.9 22:08:11 10° SW 22:13:13 33° WNW 22:18:18 10° N
Landsat 7 4.3 22:15:00 48° NE 22:15:00 48° NE 22:19:10 10° N
USA 234 3.2 22:08:17 10° NE 22:14:43 60° SE 22:17:45 32° SSW
Cosmos 1833 Rocket 3.3 22:09:52 10° N 22:15:08 40° ENE 22:15:24 40° ENE
ISS 0.2 22:20:59 10° NW 22:22:10 11° NNW 22:23:21 10° N
Meteor 1-18 Rocket 4.3 22:20:07 10° N 22:26:00 65° E 22:26:12 64° E
Cosmos 864 Rocket 4.4 22:27:09 58° SSW 22:28:28 85° W 22:34:39 10° N
Terra 2.6 22:31:14 43° NE 22:31:14 43° NE 22:34:54 10° N
SL-08 RB Rocket 4.0 22:33:35 63° WNW 22:33:35 63° WNW 22:37:46 10° NNW
Cosmos 1850 Rocket 4.3 22:30:38 10° NNW 22:35:52 60° WSW 22:36:03 60° WSW
Cosmos 2082 Rocket 2.1 22:31:06 10° NNW 22:36:43 81° NE 22:36:43 81° NE
Cosmos 2366 rocket 4.2 22:36:36 46° SW 22:38:27 66° W 22:44:44 10° N
Lacrosse 5 4.1 22:56:43 16° NE 22:56:43 16° NE 22:57:39 10° NE
DMSP B5D2-2 4.4 22:51:45 10° N 22:56:18 64° NNW 22:56:18 64° NNW
USA 229 DEB 3.6 22:56:57 10° NNW 23:04:06 88° WSW 23:04:18 85° S
USA 229 3.6 22:57:03 10° NNW 23:04:12 88° WSW 23:04:24 85° S
ASTEX 1 4.3 23:01:01 10° N 23:04:23 44° N 23:04:23 44° N
Cosmos 2369 Rocket 3.7 23:23:58 27° NE 23:23:58 27° NE 23:26:31 10° NNE
H-2A R/B 3.6 23:34:31 30° WNW 23:34:31 30° WNW 23:38:16 10° NW
